N341MD KLAL-KJAX

Flight info

Callsign N341MD
Flight time N/A
Altitude 15000
Route DCT
Aircraft C310/L-SDFGR/S

Departure

Time 2026-05-04 15:36
Airport Lakeland Linder International Airport (KLAL)

Arrival

Time N/A
Airport Jacksonville International Airport (KJAX)
Time Latitude Longitude Altitude Speed Heading
2026-05-04 15:30 27.99297 -82.01600 143 ft 0 kts 309°
2026-05-04 15:32 27.99301 -82.01607 143 ft 6 kts 280°
2026-05-04 15:33 27.99161 -82.01547 143 ft 10 kts 143°
2026-05-04 15:34 27.98924 -82.01567 142 ft 19 kts 224°
2026-05-04 15:34 27.98816 -82.01685 142 ft 24 kts 224°
2026-05-04 15:34 27.98524 -82.02013 136 ft 37 kts 223°
2026-05-04 15:35 27.98357 -82.02022 135 ft 0 kts 44°
2026-05-04 15:35 27.98498 -82.01865 139 ft 63 kts 43°
2026-05-04 15:35 27.98906 -82.01408 289 ft 92 kts 44°
2026-05-04 15:36 27.99931 -82.00254 981 ft 118 kts 46°
2026-05-04 15:36 28.00565 -81.99586 1217 ft 131 kts 44°
2026-05-04 15:36 28.01217 -81.98943 1773 ft 122 kts 32°
2026-05-04 15:37 28.02056 -81.98951 2284 ft 126 kts 347°
2026-05-04 15:37 28.02879 -81.99295 2727 ft 125 kts 346°
2026-05-04 15:37 28.03674 -81.99665 3144 ft 124 kts 343°
2026-05-04 15:37 28.04469 -82.00051 3573 ft 124 kts 342°
2026-05-04 15:38 28.05256 -82.00436 3988 ft 122 kts 345°
2026-05-04 15:38 28.10332 -82.00375 6260 ft 114 kts
2026-05-04 15:38 28.16509 -81.99603 8026 ft 110 kts 359°
2026-05-04 15:38 28.17686 -81.99461 8245 ft 110 kts 360°
2026-05-04 15:39 28.18697 -81.99332 8426 ft 110 kts 359°
2026-05-04 15:39 28.19456 -81.99230 8530 ft 110 kts 360°
2026-05-04 15:39 28.20970 -81.99036 8717 ft 109 kts
2026-05-04 15:40 28.21724 -81.98936 8804 ft 107 kts
2026-05-04 15:40 28.22446 -81.98842 8907 ft 105 kts 354°
2026-05-04 15:40 28.23193 -81.98743 9093 ft 110 kts
2026-05-04 15:40 28.23967 -81.98643 9296 ft 113 kts 359°
2026-05-04 15:41 28.31273 -81.97705 10744 ft 109 kts 359°
2026-05-04 15:41 28.32021 -81.97602 10839 ft 109 kts 359°
2026-05-04 15:41 28.33596 -81.97395 10988 ft 111 kts 359°
2026-05-04 15:41 28.34981 -81.97217 11013 ft 120 kts 358°
2026-05-04 15:42 28.35845 -81.97110 11017 ft 130 kts
2026-05-04 15:42 28.36795 -81.96980 11019 ft 144 kts
2026-05-04 15:42 28.37822 -81.96839 11013 ft 155 kts
2026-05-04 15:42 28.38931 -81.96695 11006 ft 164 kts
2026-05-04 15:43 28.40088 -81.96547 10992 ft 170 kts
2026-05-04 15:43 28.41274 -81.96395 10997 ft 170 kts
2026-05-04 15:43 28.42435 -81.96242 10982 ft 165 kts
2026-05-04 15:43 28.43563 -81.96100 10977 ft 161 kts
2026-05-04 15:44 28.44675 -81.95957 10992 ft 162 kts
2026-05-04 15:44 28.45802 -81.95813 10993 ft 168 kts
2026-05-04 15:44 28.46981 -81.95657 11005 ft 172 kts
2026-05-04 15:44 28.48186 -81.95499 10998 ft 176 kts
2026-05-04 15:45 28.49409 -81.95339 10997 ft 178 kts
2026-05-04 15:45 28.50676 -81.95177 10599 ft 191 kts
2026-05-04 15:45 28.52029 -81.94998 9890 ft 199 kts
2026-05-04 15:45 28.53394 -81.94817 9406 ft 192 kts
2026-05-04 15:46 28.54665 -81.94649 9180 ft 174 kts
2026-05-04 15:46 28.55792 -81.94505 9081 ft 152 kts
2026-05-04 15:46 28.57656 -81.94275 9034 ft 153 kts
2026-05-04 15:46 28.60705 -81.93863 9004 ft 164 kts
2026-05-04 15:47 28.61880 -81.93714 9011 ft 174 kts
2026-05-04 15:47 28.63110 -81.93555 9010 ft 180 kts
2026-05-04 15:47 28.64350 -81.93392 9008 ft 184 kts
2026-05-04 15:47 28.65636 -81.93222 9014 ft 187 kts
2026-05-04 15:48 28.66931 -81.93053 9007 ft 188 kts
2026-05-04 15:48 28.68246 -81.92880 9013 ft 190 kts
2026-05-04 15:48 28.70867 -81.92538 9009 ft 191 kts
2026-05-04 15:49 28.72195 -81.92365 9013 ft 191 kts
2026-05-04 15:49 28.73518 -81.92193 9012 ft 191 kts
2026-05-04 15:49 28.74840 -81.92021 9010 ft 191 kts
2026-05-04 15:49 28.76157 -81.91846 9014 ft 190 kts
2026-05-04 15:50 28.77469 -81.91676 9017 ft 190 kts
2026-05-04 15:50 28.78787 -81.91504 9017 ft 190 kts
2026-05-04 15:50 28.80105 -81.91332 9022 ft 191 kts
2026-05-04 15:50 28.81410 -81.91159 9021 ft 191 kts
2026-05-04 15:51 28.82733 -81.90987 9019 ft 191 kts
2026-05-04 15:51 28.84059 -81.90814 9019 ft 191 kts
2026-05-04 15:51 28.85375 -81.90642 9017 ft 191 kts
2026-05-04 15:51 28.86684 -81.90470 9022 ft 191 kts
2026-05-04 15:52 28.88009 -81.90295 9024 ft 192 kts
2026-05-04 15:52 28.89338 -81.90121 9016 ft 192 kts
2026-05-04 15:52 28.90670 -81.89946 9012 ft 192 kts
2026-05-04 15:52 28.91980 -81.89774 9012 ft 191 kts
2026-05-04 15:53 28.93306 -81.89601 9016 ft 191 kts
2026-05-04 15:53 28.94636 -81.89426 9016 ft 191 kts
2026-05-04 15:53 28.95943 -81.89253 9016 ft 191 kts
2026-05-04 15:53 28.97270 -81.89079 9015 ft 191 kts
2026-05-04 15:54 28.98593 -81.88904 9009 ft 191 kts
2026-05-04 15:54 28.99917 -81.88732 9018 ft 191 kts
2026-05-04 15:54 29.01229 -81.88560 9029 ft 193 kts
2026-05-04 15:54 29.02573 -81.88383 9025 ft 195 kts
2026-05-04 15:55 29.03929 -81.88203 9019 ft 196 kts
2026-05-04 15:55 29.05910 -81.87944 8998 ft 195 kts
2026-05-04 15:55 29.12829 -81.87480 9024 ft 190 kts 328°
2026-05-04 15:55 29.13896 -81.88353 9014 ft 188 kts 319°
2026-05-04 15:56 29.14896 -81.89306 9005 ft 187 kts 317°
2026-05-04 15:56 29.15870 -81.90275 9024 ft 188 kts 316°
2026-05-04 15:56 29.16847 -81.91271 9024 ft 188 kts 316°
2026-05-04 15:56 29.17826 -81.92279 9009 ft 189 kts 316°
2026-05-04 15:57 29.18804 -81.93284 8997 ft 187 kts 316°
2026-05-04 15:57 29.19773 -81.94283 9013 ft 187 kts 316°
2026-05-04 15:57 29.20732 -81.95266 9006 ft 186 kts 316°
2026-05-04 15:57 29.21696 -81.96257 9000 ft 185 kts 316°
2026-05-04 15:58 29.22656 -81.97244 9016 ft 185 kts 316°
2026-05-04 15:58 29.23607 -81.98220 9020 ft 186 kts 316°
2026-05-04 15:58 29.24575 -81.99213 9008 ft 185 kts 316°
2026-05-04 15:58 29.25532 -82.00198 9014 ft 184 kts 316°
2026-05-04 15:59 29.26478 -82.01165 9008 ft 184 kts 316°
2026-05-04 15:59 29.27436 -82.02147 9008 ft 183 kts 316°
2026-05-04 15:59 29.28388 -82.03124 9021 ft 184 kts 315°
2026-05-04 15:59 29.29339 -82.04099 9013 ft 184 kts 316°
2026-05-04 16:00 29.30280 -82.05064 9009 ft 183 kts 316°
2026-05-04 16:00 29.33065 -82.07934 9024 ft 188 kts 316°
2026-05-04 16:00 29.34167 -82.08739 9005 ft 192 kts 343°
2026-05-04 16:00 29.35490 -82.08589 9001 ft 197 kts 22°
2026-05-04 16:01 29.36663 -82.07764 9026 ft 198 kts 32°
2026-05-04 16:01 29.37780 -82.06832 9019 ft 198 kts 35°
2026-05-04 16:01 29.38877 -82.05871 9012 ft 197 kts 36°
2026-05-04 16:01 29.39960 -82.04904 9017 ft 197 kts 36°
2026-05-04 16:02 29.41028 -82.03943 9018 ft 197 kts 36°
2026-05-04 16:02 29.42105 -82.02971 9026 ft 197 kts 36°
2026-05-04 16:02 29.44274 -82.01016 9016 ft 200 kts 36°
2026-05-04 16:03 29.45366 -82.00027 9004 ft 199 kts 36°
2026-05-04 16:03 29.52690 -81.93723 9027 ft 197 kts 34°
2026-05-04 16:03 29.56209 -81.91023 9020 ft 195 kts 29°
2026-05-04 16:03 29.57363 -81.90201 9023 ft 195 kts 29°
2026-05-04 16:04 29.58531 -81.89379 9024 ft 195 kts 28°
2026-05-04 16:04 29.60855 -81.87756 9028 ft 197 kts 28°
2026-05-04 16:04 29.62031 -81.86939 9012 ft 197 kts 29°
2026-05-04 16:05 29.63187 -81.86134 9015 ft 196 kts 29°
2026-05-04 16:05 29.64304 -81.85226 9016 ft 196 kts 34°
2026-05-04 16:05 29.66453 -81.83273 9010 ft 196 kts 36°
2026-05-04 16:06 29.67524 -81.82292 9024 ft 197 kts 36°
2026-05-04 16:06 29.70572 -81.80062 9019 ft 194 kts 18°
2026-05-04 16:07 29.72290 -81.79453 9035 ft 196 kts 12°
2026-05-04 16:07 29.85862 -81.77341 9015 ft 190 kts
2026-05-04 16:08 29.87685 -81.77098 9014 ft 190 kts
2026-05-04 16:08 29.96184 -81.75967 6045 ft 228 kts
2026-05-04 16:09 30.09451 -81.74169 1196 ft 189 kts
2026-05-04 16:09 30.12062 -81.73823 1234 ft 191 kts
2026-05-04 16:10 30.14247 -81.73532 1162 ft 188 kts
2026-05-04 16:11 30.29215 -81.71530 1181 ft 174 kts 11°
2026-05-04 16:11 30.37978 -81.70295 1144 ft 169 kts
2026-05-04 16:12 30.41529 -81.69846 1121 ft 170 kts
2026-05-04 16:12 30.48081 -81.68961 1118 ft 154 kts 11°
2026-05-04 16:13 30.49519 -81.67651 997 ft 124 kts 72°
2026-05-04 16:13 30.50048 -81.65816 898 ft 111 kts 73°
2026-05-04 16:14 30.50850 -81.66237 281 ft 128 kts 236°
2026-05-04 16:14 30.50278 -81.67868 32 ft 80 kts 250°
2026-05-04 16:15 30.49552 -81.71120 149 ft 184 kts 256°